1314576026697,51.0730
1314576086697,51.1507
1314576146697,51.1973
1314576206697,51.0927
1314576266697,51.1325
1314576326697,51.3172
1314576386697,51.2767
1314576446697,51.2320
1314576506697,51.1754
1314576566697,51.2706
1314576626697,51.2149
1314576686697,51.4031
1314576746697,51.3148
1314576806697,51.1778
1314576866697,51.1184
1314576926697,51.2016
1314576986697,51.1764
1314577046697,51.2604
1314577106697,51.2155
1314577166697,51.2836
1314577226697,51.3018
1314577286697,51.1992
1314577346697,51.2935
1314577406697,51.2104
1314577466697,51.3622
1314577526697,51.2725
1314577586697,51.2631
1314577646697,51.3346
1314577706697,51.2426
1314577766697,51.3863
1314577826697,51.3775
1314577886697,51.3895
1314577946697,51.3045
1314578006697,51.2728
1314578066697,51.3688
1314578126697,51.1833
1314578186697,51.3774
1314578246697,51.2466
1314578306697,51.2264
1314578366697,51.3997
1314578426697,51.2967
1314578486697,51.3198
1314578546697,51.3650
1314578606697,51.4006
1314578666697,51.3201
1314578726697,51.2937
1314578786697,51.3601
1314578846697,51.2315
1314578906697,51.3156
1314578966697,51.3785
1314579026697,51.3323
1314579086697,51.2942
1314579146697,51.2902
1314579206697,51.2348
1314579266697,51.3367
1314579326697,51.2290
1314579386697,51.2335
1314579446697,51.2889
1314579506697,51.2595
1314579566697,51.3343
1314579626707,51.2614
1314579686707,51.0557
1314579746707,51.2887
1314579806707,51.3307
1314579866707,51.1957
1314579926707,51.2187
1314579986707,51.1854
1314580046707,51.2177
1314580106707,51.1028
1314580166707,51.2602
1314580226707,51.2779
1314580286707,51.2530
1314580346707,51.0949
1314580406707,51.1997
1314580466707,51.1750
1314580526707,51.0819
1314580586707,51.1750
1314580646707,51.2500
1314580706707,51.2136
1314580766707,51.1182
1314580826707,51.1334
1314580886707,51.1044
1314580946707,51.0849
1314581006707,51.2635
1314581066707,51.0793
1314581126707,51.0624
1314581186707,51.0564
1314581246707,51.0404
1314581306707,51.1057
1314581366707,50.9130
1314581426707,51.1576
1314581486707,51.1532
1314581546707,51.0479
1314581606707,51.0535
1314581666707,50.9442
1314581726707,51.1083
1314581786707,51.0437
1314581846707,51.1521
1314581906707,51.0476
1314581966707,51.0809
1314582026707,51.0325
1314582086707,50.9983
1314582146707,51.0350
1314582206707,51.0846
1314582266707,50.9418
1314582326707,50.9948
1314582386707,50.9987
1314582446707,50.8404
1314582506707,50.9886
1314582566707,50.8707
1314582626707,51.0473
1314582686707,50.9241
1314582746707,50.9702
1314582806707,51.0614
1314582866707,50.9976
1314582926707,50.9261
1314582986707,50.8939
1314583046707,51.0176
1314583106707,50.9806
1314583166707,51.0371
1314583226716,51.0274
1314583286716,50.9641
1314583346716,50.9918
1314583406716,51.0677
1314583466716,51.0591
1314583526716,51.0506
1314583586716,51.0500
1314583646716,51.1984
1314583706716,51.0536
1314583766716,51.2014
1314583826716,51.1391
1314583886716,51.1891
1314583946716,51.1422
1314584006716,51.1499
1314584066716,51.1244
1314584126716,51.1435
1314584186716,51.0951
1314584246716,51.1643
1314584306716,51.0531
1314584366716,51.1072
1314584426716,51.2401
1314584486716,51.2151
1314584546716,51.0474
1314584606716,51.2515
1314584666716,51.0624
1314584726716,51.1163
1314584786716,50.9980
1314584846716,51.1131
1314584906716,51.1373
1314584966716,51.1440
1314585026716,51.1114
1314585086716,51.2746
1314585146716,51.1240
1314585206716,51.3164
1314585266716,51.2097
1314585326716,51.0978
1314585386716,51.0709
1314585446716,51.1154
1314585506716,51.2050
1314585566716,51.1484
1314585626716,51.1401
1314585686716,51.1638
1314585746716,51.1209
1314585806716,51.1571
1314585866716,51.2255
1314585926716,51.1767
1314585986716,51.2271
1314586046716,51.2051
1314586106716,51.3447
1314586166716,51.1559
1314586226716,51.2361
1314586286716,51.3209
1314586346716,51.2550
1314586406716,51.2884
1314586466716,51.3309
1314586526716,51.3446
1314586586716,51.2782
1314586646716,51.2486
1314586706716,51.1916
1314586766716,51.2566
1314586826726,51.2009
1314586886726,51.1090
1314586946726,51.2220
1314587006726,51.3567
1314587066726,51.0625
1314587126726,51.1679
1314587186726,51.2960
1314587246726,51.1462
1314587306726,51.2393
1314587366726,51.2131
1314587426726,51.1473
1314587486726,51.2973
1314587546726,51.3338
1314587606726,51.2837
1314587666726,51.2291
1314587726726,51.2568
1314587786726,51.1402
1314587846726,51.3017
1314587906726,51.1086
1314587966726,51.0876
1314588026726,51.1466
1314588086726,51.0908
1314588146726,51.0095
1314588206726,50.9415
1314588266726,51.1244
1314588326726,51.0653
1314588386726,51.1347
1314588446726,51.0001
1314588506726,51.0007
1314588566726,50.9992
1314588626726,51.0434
1314588686726,51.0567
1314588746726,51.0183
1314588806726,50.8224
1314588866726,51.0482
1314588926726,50.9231
1314588986726,50.9821
1314589046726,51.0886
1314589106726,51.1105
1314589166726,51.0879
1314589226726,50.9136
1314589286726,51.0837
1314589346726,51.0074
1314589406726,50.9780
1314589466726,50.8747
1314589526726,51.1096
1314589586726,50.9108
1314589646726,51.0230
1314589706726,50.9280
1314589766726,50.9446
1314589826726,51.0009
1314589886726,50.9691
1314589946726,50.8937
1314590006726,50.9398
1314590066726,50.7821
1314590126726,50.8018
1314590186726,50.8796
1314590246726,50.8080
1314590306726,50.9379
1314590366726,50.8672
1314590426736,50.9039
1314590486736,50.9782
1314590546736,50.9078
1314590606736,50.7861
1314590666736,50.8847
1314590726736,50.8577
1314590786736,50.7807
1314590846736,50.8429
1314590906736,50.7834
1314590966736,50.8397
1314591026736,50.8354
1314591086736,50.8565
1314591146736,50.8277
1314591206736,50.7619
1314591266736,50.7540
1314591326736,50.8685
1314591386736,50.8531
1314591446736,50.6702
1314591506736,50.8500
1314591566736,50.7713
1314591626736,50.8467
1314591686736,51.0233
1314591746736,50.8699
1314591806736,50.6816
1314591866736,50.8048
1314591926736,50.7713
1314591986736,50.9720
1314592046736,50.9469
1314592106736,50.8983
1314592166736,50.9631
1314592226736,50.7660
1314592286736,50.8580
1314592346736,51.1102
1314592406736,50.8551
1314592466736,50.8842
1314592526736,50.9973
1314592586736,50.8665
1314592646736,51.0346
1314592706736,51.0136
1314592766736,50.9354
1314592826736,50.9265
1314592886736,51.0049
1314592946736,51.1231
1314593006736,51.0179
1314593066736,50.8069
1314593126736,50.9580
1314593186736,50.7683
1314593246736,50.6986
1314593306736,50.9911
1314593366736,50.9543
1314593426736,50.9429
1314593486736,50.8432
1314593546736,51.0014
1314593606736,51.0460
1314593666736,51.0292
1314593726736,51.0827
1314593786736,51.0068
1314593846736,50.9799
1314593906736,50.9038
1314593966736,50.9552
1314594026745,50.9274
1314594086745,50.9534
1314594146745,51.0465
1314594206745,50.9103
1314594266745,51.0014
1314594326745,51.1423
1314594386745,50.9864
1314594446745,50.9782
1314594506745,50.9805
1314594566745,51.0544
1314594626745,51.0231
1314594686745,50.9144
1314594746745,51.0613
1314594806745,51.0004
1314594866745,50.9901
1314594926745,50.8959
1314594986745,50.8894
1314595046745,50.7894
1314595106745,50.9602
1314595166745,50.9575
1314595226745,50.9404
1314595286745,50.9443
1314595346745,50.8873
1314595406745,50.8618
1314595466745,50.8927
1314595526745,50.8923
1314595586745,50.8545
1314595646745,50.9159
1314595706745,50.9152
1314595766745,50.8611
1314595826745,51.0659
1314595886745,51.0452
1314595946745,50.8849
1314596006745,50.9544
1314596066745,50.9033
1314596126745,50.9613
1314596186745,50.9673
1314596246745,50.8266
1314596306745,50.9586
1314596366745,50.9038
1314596426745,51.0317
1314596486745,51.0076
1314596546745,51.0033
1314596606745,51.0609
1314596666745,51.0270
1314596726745,50.9521
1314596786745,50.9691
1314596846745,50.8762
1314596906745,50.9003
1314596966745,50.8529
1314597026745,50.9038
1314597086745,50.8981
1314597146745,51.0214
1314597206745,51.1243
1314597266745,50.9688
1314597326745,50.9890
1314597386745,50.9901
1314597446745,51.0066
1314597506745,50.9010
1314597566745,51.0753
1314597626755,50.9771
1314597686755,50.9190
1314597746755,50.9828
1314597806755,50.9145
1314597866755,50.9264
1314597926755,50.8784
1314597986755,50.9068
1314598046755,50.9797
1314598106755,50.8634
1314598166755,50.7353
1314598226755,51.0144
1314598286755,50.8472
1314598346755,50.9686
1314598406755,50.8840
1314598466755,50.9114
1314598526755,50.9602
1314598586755,50.9403
1314598646755,50.8975
1314598706755,50.9311
1314598766755,50.8749
1314598826755,50.8457
1314598886755,50.7424
1314598946755,51.0016
1314599006755,50.9066
1314599066755,50.8838
1314599126755,50.7979
1314599186755,50.8606
1314599246755,51.0216
1314599306755,50.7809
1314599366755,50.9108
1314599426755,50.8310
1314599486755,50.9105
1314599546755,50.9266
1314599606755,50.9088
1314599666755,50.8947
1314599726755,50.9739
1314599786755,50.9989
1314599846755,51.0133
1314599906755,50.8542
1314599966755,51.0098
1314600026755,51.1792
1314600086755,50.8769
1314600146755,50.9698
1314600206755,50.8454
1314600266755,50.9739
1314600326755,50.8330
1314600386755,51.1001
1314600446755,50.7279
1314600506755,50.9572
1314600566755,50.8557
1314600626755,50.9106
1314600686755,50.9835
1314600746755,50.9541
1314600806755,51.0269
1314600866755,50.8729
1314600926755,51.1424
1314600986755,50.8985
1314601046755,50.9192
1314601106755,51.0850
1314601166755,50.9256
1314601226764,50.8053
1314601286764,51.0452
1314601346764,50.8762
1314601406764,50.9672
1314601466764,50.8367
1314601526764,51.0612
1314601586764,50.9339
1314601646764,50.8660
1314601706764,50.7355
1314601766764,50.9266
1314601826764,50.8454
1314601886764,50.8751
1314601946764,50.7632
1314602006764,50.8744
1314602066764,50.8772
1314602126764,50.8320
1314602186764,50.9524
1314602246764,50.8809
1314602306764,50.7090
1314602366764,50.8027
1314602426764,50.8772
1314602486764,50.8442
1314602546764,50.9234
1314602606764,50.8408
1314602666764,50.7718
1314602726764,50.7507
1314602786764,50.6549
1314602846764,50.8280
1314602906764,50.7950
1314602966764,50.7784
1314603026764,50.7902
1314603086764,50.6455
1314603146764,50.8088
1314603206764,50.7654
1314603266764,50.7955
1314603326764,50.6841
1314603386764,50.6839
1314603446764,50.7247
1314603506764,50.7030
1314603566764,50.5755
1314603626764,50.6073
1314603686764,50.7028
1314603746764,50.6590
1314603806764,50.6903
1314603866764,50.6615
1314603926764,50.6353
1314603986764,50.8286
1314604046764,50.8585
1314604106764,51.0428
1314604166764,50.8840
1314604226764,50.8491
1314604286764,50.9763
1314604346764,50.8563
1314604406764,50.7608
1314604466764,50.8299
1314604526764,50.6691
1314604586764,50.7247
1314604646764,50.8110
1314604706764,50.7179
1314604766764,50.7901
1314604826774,50.6666
1314604886774,50.7297
1314604946774,50.8264
1314605006774,50.7068
1314605066774,50.9479
1314605126774,50.6827
1314605186774,50.7429
1314605246774,50.7852
1314605306774,50.7991
1314605366774,50.8453
1314605426774,50.9401
1314605486774,50.9624
1314605546774,50.8068
1314605606774,50.6896
1314605666774,50.7365
1314605726774,50.9437
1314605786774,50.7834
1314605846774,50.7583
1314605906774,50.7126
1314605966774,50.7784
1314606026774,50.7069
1314606086774,50.6208
1314606146774,50.6360
1314606206774,50.8974
1314606266774,50.6773
1314606326774,50.6782
1314606386774,50.7054
1314606446774,50.8085
1314606506774,50.5175
1314606566774,50.5670
1314606626774,50.6127
1314606686774,50.6614
1314606746774,50.6250
1314606806774,50.5129
1314606866774,50.7440
1314606926774,50.6453
1314606986774,50.5405
1314607046774,50.7238
1314607106774,50.5927
1314607166774,50.7206
1314607226774,50.5659
1314607286774,50.6966
1314607346774,50.7115
1314607406774,50.5642
1314607466774,50.5714
1314607526774,50.6743
1314607586774,50.5905
1314607646774,50.5536
1314607706774,50.4657
1314607766774,50.5575
1314607826774,50.5922
1314607886774,50.7000
1314607946774,50.6907
1314608006774,50.5804
1314608066774,50.7723
1314608126774,50.5739
1314608186774,50.5693
1314608246774,50.7873
1314608306774,50.7376
1314608366774,50.6840
1314608426784,50.8983
1314608486784,50.6001
1314608546784,50.5546
1314608606784,50.7829
1314608666784,50.8197
1314608726784,50.7869
1314608786784,50.7208
1314608846784,50.7461
1314608906784,50.5475
1314608966784,50.5852
1314609026784,50.5963
1314609086784,50.5832
1314609146784,50.7799
1314609206784,50.7026
1314609266784,50.6745
1314609326784,50.5978
1314609386784,50.7359
1314609446784,50.7037
1314609506784,50.7031
1314609566784,50.7439
1314609626784,50.4887
1314609686784,50.6851
1314609746784,50.5634
1314609806784,50.9066
1314609866784,50.5829
1314609926784,50.5517
1314609986784,50.6370
1314610046784,50.6008
1314610106784,50.5905
1314610166784,50.5643
1314610226784,50.5104
1314610286784,50.6897
1314610346784,50.6769
1314610406784,50.6349
1314610466784,50.5907
1314610526784,50.5840
1314610586784,50.6159
1314610646784,50.6155
1314610706784,50.4167
1314610766784,50.5715
1314610826784,50.4002
1314610886784,50.4557
1314610946784,50.3637
1314611006784,50.3539
1314611066784,50.4403
1314611126784,50.3713
1314611186784,50.2567
1314611246784,50.4033
1314611306784,50.3364
1314611366784,50.2710
1314611426784,50.2410
1314611486784,50.2759
1314611546784,50.2531
1314611606784,50.3298
1314611666784,50.1608
1314611726784,50.3577
1314611786784,50.3156
1314611846784,50.2961
1314611906784,50.1850
1314611966784,50.3396
1314612026794,50.2099
1314612086794,50.0298
1314612146794,50.1677
1314612206794,50.2212
1314612266794,50.2350
1314612326794,50.1459
1314612386794,50.1916
1314612446794,50.2282
1314612506794,49.9624
1314612566794,50.0684
1314612626794,50.1928
1314612686794,50.2581
1314612746794,50.1308
1314612806794,49.9286
1314612866794,50.1015
1314612926794,50.1018
1314612986794,50.0660
1314613046794,50.1727
1314613106794,50.1900
1314613166794,50.1742
1314613226794,50.0903
1314613286794,49.9865
1314613346794,50.0039
1314613406794,49.8370
1314613466794,50.0741
1314613526794,50.0698
1314613586794,50.0143
1314613646794,50.0984
1314613706794,50.0117
1314613766794,49.8651
1314613826794,50.1216
1314613886794,49.9824
1314613946794,49.9995
1314614006794,50.0378
1314614066794,50.0745
1314614126794,49.9285
1314614186794,49.9393
1314614246794,50.0580
1314614306794,50.1307
1314614366794,50.0708
1314614426794,49.9844
1314614486794,50.1123
1314614546794,49.9089
1314614606794,49.9704
1314614666794,49.9440
1314614726794,50.0790
1314614786794,49.9130
1314614846794,49.8900
1314614906794,49.9420
1314614966794,50.0177
1314615026794,49.9229
1314615086794,49.7362
1314615146794,49.8494
1314615206794,49.8688
1314615266794,49.9497
1314615326794,49.8659
1314615386794,49.7481
1314615446794,49.8290
1314615506794,49.6580
1314615566794,49.6417
1314615626804,49.7793
1314615686804,49.7758
1314615746804,49.7553
1314615806804,49.7915
1314615866804,49.6617
1314615926804,49.8964
1314615986804,49.8449
1314616046804,49.8105
1314616106804,49.7931
1314616166804,49.6839
1314616226804,49.7417
1314616286804,49.7324
1314616346804,49.7509
1314616406804,49.6948
1314616466804,49.6636
1314616526804,49.7926
1314616586804,49.6996
1314616646804,49.7152
1314616706804,49.8283
1314616766804,49.7367
1314616826804,49.7347
1314616886804,49.9399
1314616946804,49.7468
1314617006804,49.7781
1314617066804,49.8652
1314617126804,49.7689
1314617186804,49.5632
1314617246804,49.7321
1314617306804,49.6959
1314617366804,49.7579
1314617426804,49.6330
1314617486804,49.6003
1314617546804,49.7308
1314617606804,49.6994
1314617666804,49.7808
1314617726804,49.7158
1314617786804,49.8023
1314617846804,49.8533
1314617906804,49.8986
1314617966804,50.0403
1314618026804,49.9415
1314618086804,49.8208
1314618146804,49.7656
1314618206804,49.7437
1314618266804,49.7720
1314618326804,49.6707
1314618386804,49.8311
1314618446804,49.5719
1314618506804,49.5289
1314618566804,49.5471
1314618626804,49.7080
1314618686804,49.5452
1314618746804,49.4661
1314618806804,49.4034
1314618866804,49.5615
1314618926804,49.4356
1314618986804,49.4414
1314619046804,49.6655
1314619106804,49.5682
1314619166804,49.5242
1314619226815,49.5435
1314619286815,49.4613
1314619346815,49.4944
1314619406815,49.4317
1314619466815,49.4461
1314619526815,49.4258
1314619586815,49.4317
1314619646815,49.4566
1314619706815,49.4697
1314619766815,49.4290
1314619826815,49.4870
1314619886815,49.2631
1314619946815,49.3931
1314620006815,49.4006
1314620066815,49.3009
1314620126815,49.3589
1314620186815,49.3776
1314620246815,49.3372
1314620306815,49.3958
1314620366815,49.3977
1314620426815,49.2819
1314620486815,49.4533
1314620546815,49.3335
1314620606815,49.3341
1314620666815,49.5256
1314620726815,49.5923
1314620786815,49.4883
1314620846815,49.3401
1314620906815,49.4380
1314620966815,49.5816
1314621026815,49.4830
1314621086815,49.4800
1314621146815,49.5452
1314621206815,49.5322
1314621266815,49.5622
1314621326815,49.3465
1314621386815,49.6110
1314621446815,49.6762
1314621506815,49.6607
1314621566815,49.7142
1314621626815,49.5938
1314621686815,49.5711
1314621746815,49.7639
1314621806815,49.6372
1314621866815,49.7626
1314621926815,49.7427
1314621986815,49.5652
1314622046815,49.6757
1314622106815,49.7006
1314622166815,49.7594
1314622226815,49.7714
1314622286815,49.7015
1314622346815,49.6611
1314622406815,49.6851
1314622466815,49.7733
1314622526815,49.6385
1314622586815,49.7232
1314622646815,49.5573
1314622706815,49.5894
1314622766815,49.7471
1314622826825,49.5601
1314622886825,49.4848
1314622946825,49.6439
1314623006825,49.5970
1314623066825,49.5749
1314623126825,49.5925
1314623186825,49.5464
1314623246825,49.6785
1314623306825,49.5509
1314623366825,49.6480
1314623426825,49.5991
1314623486825,49.4332
1314624026825,49.5677
1314624086825,49.4709
1314624146825,49.3856
1314624206825,49.4868
1314624266825,49.4249
1314624326825,49.4897
1314624386825,49.4720
1314624446825,49.4711
1314624506825,49.4660
1314624566825,49.3048
1314624626825,49.4841
1314624686825,49.4289
1314624746825,49.3979
1314624806825,49.3147
1314624866825,49.3256
1314624926825,49.3473
1314624986825,49.4173
1314625046825,49.4413
1314625106825,49.3590
1314625166825,49.4993
1314625226825,49.3517
1314625286825,49.4046
1314625346825,49.4151
1314625406825,49.3654
1314625466825,49.3044
1314625526825,49.2505
1314625586825,49.4097
1314625646825,49.3687
1314625706825,49.3620
1314625766825,49.5137
1314625826825,49.3878
1314625886825,49.3534
1314625946825,49.4464
1314626006825,49.2535
1314626066825,49.4174
1314626126825,49.3773
1314626186825,49.3759
1314626246825,49.3462
1314626306825,49.4123
1314626366825,49.3835
1314626426835,49.5935
1314626486835,49.3901
1314626546835,49.4664
1314626606835,49.4196
1314626666835,49.5206
1314626726835,49.6198
1314626786835,49.4583
1314626846835,49.4984
1314626906835,49.5667
1314626966835,49.4780
1314627026835,49.6257
1314627086835,49.5712
1314627146835,49.5851
1314627206835,49.4038
1314627266835,49.5557
1314627326835,49.6649
1314627386835,49.6874
1314627446835,49.7204
1314627506835,49.6962
1314627566835,49.6187
1314627626835,49.5744
1314627686835,49.6727
1314627746835,49.6629
1314627806835,49.5669
1314627866835,49.6554
1314627926835,49.5753
1314627986835,49.6265
1314628046835,49.5242
1314628106835,49.5581
1314628166835,49.6145
1314628226835,49.4990
1314628286835,49.5929
1314628346835,49.5874
1314628406835,49.5348
1314628466835,49.5744
1314628526835,49.5596
1314628586835,49.5864
1314628646835,49.5259
1314628706835,49.5803
1314628766835,49.6935
1314628826835,49.5881
1314628886835,49.5678
1314628946835,49.4623
1314629006835,49.4923
1314629066835,49.5811
1314629126835,49.5833
1314629186835,49.4877
1314629246835,49.4822
1314629306835,49.4943
1314629366835,49.4944
1314629426835,49.4417
1314629486835,49.4708
1314629546835,49.5422
1314629606835,49.4600
1314629666835,49.5507
1314629726835,49.6348
1314629786835,49.5450
1314629846835,49.5237
1314629906835,49.7027
1314629966835,49.6152
1314630026846,49.5698
1314630086846,49.6260
1314630146846,49.4798
1314630206846,49.6165
1314630266846,49.5518
1314630326846,49.5660
1314630386846,49.6084
1314630446846,49.5587
1314630506846,49.6354
1314630566846,49.7618
1314630626846,49.6798
1314630686846,49.6777
1314630746846,49.6072
1314630806846,49.5855
1314630866846,49.5933
1314630926846,49.5422
1314630986846,49.4667
1314631046846,49.6094
1314631106846,49.7407
1314631166846,49.6182
1314631226846,49.4667
1314631286846,49.5392
1314631346846,49.6598
1314631406846,49.6855
1314631466846,49.6463
1314631526846,49.7812
1314631586846,49.7700
1314631646846,49.7116
1314631706846,49.7359
1314631766846,49.6609
1314631826846,49.6678
1314631886846,49.7171
1314631946846,49.6866
1314632006846,49.7669
1314632066846,49.7258
1314632126846,49.9310
1314632186846,49.8130
1314632246846,49.8137
1314632306846,49.7063
1314632366846,49.8819
1314632426846,49.8828
1314632486846,49.8452
1314632546846,49.7984
1314632606846,49.7955
1314632666846,49.9244
1314632726846,49.8458
1314632786846,49.8222
1314632846846,49.8518
1314632906846,49.8499
1314632966846,49.8275
1314633026846,49.8669
1314633086846,49.9982
1314633146846,49.8419
1314633206846,49.7862
1314633266846,49.8475
1314633326846,49.8650
1314633386846,49.9237
1314633446846,49.8362
1314633506846,49.8839
1314633566846,50.0034
1314633626857,49.9044
1314633686857,49.8535
1314633746857,49.9193
1314633806857,50.0371
1314633866857,49.9025
1314633926857,50.1672
1314633986857,49.9033
1314634046857,49.9962
1314634106857,49.9472
1314634166857,49.9560
1314634226857,50.0712
1314634286857,50.0220
1314634346857,49.9880
1314634406857,50.1030
1314634466857,50.1329
1314634526857,49.8603
1314634586857,49.9330
1314634646857,50.0435
1314634706857,50.0227
1314634766857,50.1050
1314634826857,50.0120
1314634886857,49.9078
1314634946857,49.9641
1314635006857,50.0112
1314635066857,49.8863
1314635126857,49.9073
1314635186857,49.9617
1314635246857,49.8654
1314635306857,49.8381
1314635366857,50.0186
1314635426857,49.7706
1314635486857,49.9967
1314635546857,49.9236
1314635606857,49.9234
1314635666857,50.0058
1314635726857,49.8620
1314635786857,49.8917
1314635846857,50.0543
1314635906857,50.1093
1314635966857,49.8513
1314636026857,49.9912
1314636086857,49.9707
1314636146857,50.0685
1314636206857,50.0476
1314636266857,49.9310
1314636326857,49.9024
1314636386857,50.0648
1314636446857,49.9741
1314636506857,50.0106
1314636566857,50.0203
1314636626857,49.9997
1314636686857,50.0921
1314636746857,50.0702
1314636806857,50.0652
1314636866857,50.2137
1314636926857,50.1158
1314636986857,50.0371
1314637046857,50.0207
1314637106857,49.9160
1314637166857,49.9907
1314637226868,49.9832
1314637286868,50.0583
1314637346868,50.0364
1314637406868,49.9268
1314637466868,49.9073
1314637526868,50.0192
1314637586868,50.0854
1314637646868,49.9813
1314637706868,50.1423
1314637766868,50.0045
1314637826868,50.2483
1314637886868,50.0478
1314637946868,50.0178
1314638006868,49.9425
1314638066868,49.8877
1314638126868,50.0531
1314638186868,50.0429
1314638246868,50.0533
1314638306868,50.0614
1314638366868,50.0444
1314638426868,50.0321
1314638486868,50.1089
1314638546868,50.0224
1314638606868,50.0697
1314638666868,50.2183
1314638726868,50.1510
1314638786868,50.1818
1314638846868,50.1875
1314638906868,50.0494
1314638966868,50.1719
1314639026868,50.1584
1314639086868,50.0871
1314639146868,50.1092
1314639206868,50.1766
1314639266868,49.9920
1314639326868,50.0888
1314639386868,50.1065
1314639446868,50.2666
1314639506868,50.2103
1314639566868,50.1701
1314639626868,50.0843
1314639686868,50.2854
1314639746868,50.1674
1314639806868,49.9912
1314639866868,49.9150
1314639926868,50.0392
1314639986868,50.0043
1314640046868,49.9960
1314640106868,50.0798
1314640166868,50.0398
1314640226868,50.0862
1314640286868,50.0893
1314640346868,49.9146
1314640406868,50.1222
1314640466868,49.9929
1314640526868,49.8618
1314640586868,50.1127
1314640646868,50.0526
1314640706868,50.0199
1314640766868,49.9395
1314640826880,49.9960
1314640886880,49.9850
1314640946880,50.0791
1314641006880,50.0774
1314641066880,49.8869
1314641126880,50.0990
1314641186880,50.0500
1314641246880,50.0412
1314641306880,49.8702
1314641366880,49.9190
1314641426880,49.7621
1314641486880,49.9823
1314641546880,49.9608
1314641606880,49.9339
1314641666880,50.0718
1314641726880,49.9591
1314641786880,49.8563
1314641846880,49.8410